Weather reports worldwide

Advertisment
Benavente, Spain (8056): temperature & dewpoint: 13.03.2019 09:00:00 - 19.03.2019 09:00:00 (CET)Benavente, Spain (8056): wind speed & gusts: 13.03.2019 09:00:00 - 19.03.2019 09:00:00 (CET)Benavente, Spain (8056): wind direction: 13.03.2019 09:00:00 - 19.03.2019 09:00:00 (CET)Benavente, Spain (8056): reduced air pressure: 13.03.2019 09:00:00 - 19.03.2019 09:00:00 (CET)Benavente, Spain (8056): visibility: 13.03.2019 09:00:00 - 19.03.2019 09:00:00 (CET)Benavente, Spain (8056): sunshine duration: 13.03.2019 09:00:00 - 19.03.2019 09:00:00 (CET)Benavente, Spain (8056): precipitation: 13.03.2019 09:00:00 - 19.03.2019 09:00:00 (CET)
Date & Time tt [°C] td [°C] ff [km/h] ff [kn] fx [km/h] fx [kn] dd ppp [hPa] vv [km] sd [min] rr [mm]
19.03.2019 09:00:00 5,1 -1,0 3 2 16 8 WSW 1029,6 20 60 0,0
19.03.2019 08:00:00 1,5 -1,7 4 2 10 5 NNW 1030,7 20 14 0,0
19.03.2019 07:00:00 1,5 -1,7 6 3 10 5 NNW 1030,1 20 0 -
19.03.2019 06:00:00 2,4 -1,2 2 1 12 6 WNW 1029,7 20 0 0,0
19.03.2019 05:00:00 3,1 -0,5 6 3 10 6 WNW 1029,3 20 0 0,0
19.03.2019 04:00:00 4,5 0,0 4 2 8 5 SW 1028,9 20 0 0,0
19.03.2019 03:00:00 4,4 0,0 1 1 7 4 NNE 1029,4 20 0 0,0
19.03.2019 02:00:00 4,7 0,0 3 1 14 8 E 1029,5 20 0 0,0
19.03.2019 01:00:00 4,1 -0,3 4 2 11 6 NNE 1030,0 20 0 -
19.03.2019 00:00:00 4,2 -0,5 5 3 16 8 NNE 1029,8 20 0 0,0
18.03.2019 23:00:00 5,2 -0,5 8 5 18 10 ENE 1029,3 20 0 0,0
18.03.2019 22:00:00 6,0 -1,4 7 4 21 11 NE 1029,1 20 0 0,0
18.03.2019 21:00:00 6,7 -1,7 3 2 6 3 NNW 1027,9 20 0 0,0
18.03.2019 20:00:00 8,5 -2,0 0 0 8 4 N 1026,8 20 0 0,0
18.03.2019 19:00:00 11,0 -3,3 3 2 16 9 SE 1025,7 20 19 -
18.03.2019 18:00:00 12,5 -3,9 3 2 15 8 SE 1025,1 20 48 0,0
18.03.2019 17:00:00 12,7 -4,2 3 2 14 8 N 1025,2 20 60 0,0
18.03.2019 16:00:00 12,0 -4,2 7 4 20 11 SE 1025,7 20 60 0,0
18.03.2019 15:00:00 11,5 -4,8 7 4 22 12 NE 1026,3 20 60 0,0
18.03.2019 14:00:00 10,6 -3,6 6 3 17 9 E 1027,2 20 60 0,0
18.03.2019 13:00:00 9,9 -3,6 6 4 18 10 ENE 1028,1 19 60 -
18.03.2019 12:00:00 9,2 -3,3 5 3 24 13 SE 1028,6 20 60 0,0
18.03.2019 11:00:00 7,3 -3,9 7 4 18 10 ENE 1029,6 20 60 0,0
18.03.2019 10:00:00 6,0 -3,0 5 3 13 7 NE 1029,8 20 60 0,0
18.03.2019 09:00:00 2,9 -3,0 3 1 8 5 S 1030,3 20 60 0,0
18.03.2019 08:00:00 -1,6 -4,8 3 2 8 5 N 1031,4 20 10 0,0
18.03.2019 07:00:00 -1,6 -4,8 3 2 7 4 NW 1030,5 20 0 -
18.03.2019 06:00:00 -1,2 -4,8 3 1 6 3 NNW 1030,1 20 0 0,0
18.03.2019 05:00:00 -0,9 -4,5 3 2 7 4 NNW 1029,7 20 0 0,0
18.03.2019 04:00:00 -0,5 -4,2 3 2 6 3 NNW 1029,3 20 0 0,0
18.03.2019 03:00:00 0,7 -3,9 3 2 7 4 NE 1028,9 20 0 0,0
18.03.2019 02:00:00 2,0 -3,6 3 2 15 8 ENE 1028,3 20 0 0,0
18.03.2019 01:00:00 3,7 -3,0 10 6 24 13 NE 1027,6 20 0 -
18.03.2019 00:00:00 4,8 -2,7 15 8 32 17 NE 1027,1 20 0 0,0
17.03.2019 23:00:00 5,9 -3,0 14 7 34 18 NE 1026,3 20 0 0,0
17.03.2019 22:00:00 7,0 -2,5 21 11 42 23 NNE 1025,3 20 0 0,0
17.03.2019 21:00:00 8,3 -2,7 20 11 42 23 NE 1023,9 20 0 0,0
17.03.2019 20:00:00 10,2 -2,7 22 12 40 22 NE 1022,2 20 0 0,0
17.03.2019 19:00:00 12,2 -1,7 14 8 35 19 N 1020,4 20 7 -
17.03.2019 18:00:00 14,6 -1,2 13 7 32 18 NNE 1018,7 20 41 0,0
17.03.2019 17:00:00 15,8 -0,5 16 9 34 18 N 1018,0 20 40 0,0
17.03.2019 16:00:00 15,3 -1,0 9 5 23 12 N 1018,2 20 20 0,0
17.03.2019 15:00:00 15,7 0,0 8 4 28 15 NW 1018,2 20 8 0,0
17.03.2019 14:00:00 14,9 1,1 9 5 25 13 NW 1018,9 20 14 0,0
17.03.2019 13:00:00 13,8 3,0 7 4 20 11 NNW 1019,6 20 13 -
17.03.2019 12:00:00 13,4 3,2 6 3 16 9 W 1019,7 20 43 0,0
17.03.2019 11:00:00 11,6 2,1 6 4 15 8 WSW 1020,4 20 60 0,0
17.03.2019 10:00:00 9,1 1,5 5 3 13 7 W 1021,0 20 57 0,0
17.03.2019 09:00:00 6,5 -0,5 4 2 8 5 S 1021,4 20 45 0,0
17.03.2019 08:00:00 4,6 -1,2 3 2 18 10 SW 1021,0 20 1 0,0
17.03.2019 07:00:00 4,8 -1,7 4 2 16 8 W 1020,3 20 0 -
17.03.2019 06:00:00 4,8 -2,0 9 5 16 9 NW 1019,8 20 0 0,0
17.03.2019 05:00:00 4,3 -3,9 1 1 13 7 N 1019,0 20 0 0,0
17.03.2019 04:00:00 7,5 -4,2 10 5 19 11 SW 1017,9 20 0 0,0
17.03.2019 03:00:00 8,4 -3,9 5 3 26 14 WSW 1017,9 20 0 0,0
17.03.2019 02:00:00 9,9 -3,0 11 6 25 13 WSW 1017,4 20 0 0,0
17.03.2019 01:00:00 10,4 -2,0 11 6 29 15 SW 1017,6 20 0 -
17.03.2019 00:00:00 10,8 -1,2 7 4 18 10 WSW 1017,9 20 0 0,0
16.03.2019 23:00:00 12,2 -2,2 5 3 16 9 W 1017,6 20 0 0,0
16.03.2019 22:00:00 13,4 -1,4 6 3 14 8 W 1017,3 20 0 0,0
16.03.2019 21:00:00 14,6 0,4 7 4 15 8 W 1016,8 20 0 0,0
16.03.2019 20:00:00 16,6 -0,7 9 5 29 15 WSW 1015,8 20 0 0,0
16.03.2019 19:00:00 18,7 -1,7 11 6 38 20 WSW 1015,1 20 39 -
16.03.2019 18:00:00 20,6 -3,9 17 9 35 19 WSW 1014,7 20 60 0,0
16.03.2019 17:00:00 21,4 -5,4 19 11 40 21 SW 1014,5 20 60 0,0
16.03.2019 16:00:00 22,1 -3,3 21 11 40 22 SW 1014,8 20 60 0,0
16.03.2019 15:00:00 20,8 1,1 11 6 23 13 S 1016,0 20 60 0,0
16.03.2019 14:00:00 19,1 -0,3 8 5 22 12 S 1018,0 20 60 0,0
16.03.2019 13:00:00 16,9 0,4 5 3 14 7 SSE 1020,1 20 60 -
16.03.2019 12:00:00 14,6 0,9 3 2 9 5 S 1021,6 20 60 0,0
16.03.2019 11:00:00 10,7 1,5 3 1 8 4 ENE 1023,5 20 60 0,0
16.03.2019 10:00:00 6,8 0,6 4 2 17 9 NNE 1025,0 20 60 0,0
16.03.2019 09:00:00 4,4 -1,2 3 1 11 6 E 1026,1 20 56 0,0
16.03.2019 08:00:00 0,5 -3,0 4 2 8 4 NNW 1027,4 20 3 0,0
16.03.2019 07:00:00 0,2 -3,3 4 2 7 4 NNW 1027,4 20 0 -
16.03.2019 06:00:00 0,4 -2,7 3 2 5 3 NNE 1027,4 20 0 0,0
16.03.2019 05:00:00 1,5 -2,0 3 2 9 5 NE 1027,2 20 0 0,0
16.03.2019 04:00:00 3,2 -2,0 6 3 11 6 N 1027,0 20 0 0,0
16.03.2019 03:00:00 4,5 -1,2 5 3 16 9 N 1027,4 20 0 0,0
16.03.2019 02:00:00 4,0 -0,3 5 3 16 8 NNE 1027,7 20 0 0,0
16.03.2019 01:00:00 4,8 0,6 1 1 5 3 NNE 1027,8 20 0 -
16.03.2019 00:00:00 5,1 0,6 0 0 4 2 N 1027,5 20 0 0,0
15.03.2019 23:00:00 6,1 1,3 1 1 6 3 N 1027,6 20 0 0,0
15.03.2019 22:00:00 7,4 1,3 0 0 5 3 N 1026,9 20 0 0,0
15.03.2019 21:00:00 10,3 1,5 3 2 7 4 S 1025,8 20 0 0,0
15.03.2019 20:00:00 12,1 1,5 1 1 10 6 S 1025,1 20 0 0,0
15.03.2019 19:00:00 17,1 0,6 6 4 15 8 S 1023,5 20 38 -
15.03.2019 18:00:00 19,6 -1,0 8 4 15 8 S 1022,7 20 60 0,0
15.03.2019 17:00:00 19,9 0,4 8 4 18 10 SSW 1022,7 20 60 0,0
15.03.2019 16:00:00 19,4 0,4 9 5 19 10 S 1023,4 20 60 0,0
15.03.2019 15:00:00 18,3 0,4 6 3 16 8 S 1024,2 20 60 0,0
15.03.2019 14:00:00 16,2 1,1 3 2 13 7 S 1025,6 20 60 0,0
15.03.2019 13:00:00 14,2 0,9 4 2 11 6 S 1027,1 20 60 -
15.03.2019 12:00:00 11,4 1,9 5 3 13 7 E 1028,7 20 60 0,0
15.03.2019 11:00:00 8,5 2,3 5 3 13 7 NNE 1030,2 20 60 0,0
15.03.2019 10:00:00 6,1 1,3 6 3 14 7 NE 1031,3 20 60 0,0
15.03.2019 09:00:00 3,7 -0,3 6 3 11 6 NNE 1032,1 20 54 0,0
15.03.2019 08:00:00 -0,1 -1,7 0 0 5 3 N 1033,2 20 0 0,0
15.03.2019 07:00:00 0,7 -1,0 5 3 12 6 N 1032,6 20 0 -
15.03.2019 06:00:00 1,1 -0,7 4 2 17 9 N 1032,5 16 0 0,0
15.03.2019 05:00:00 1,9 -0,3 3 2 14 8 NNW 1032,0 18 0 0,0
15.03.2019 04:00:00 2,4 0,2 8 4 14 7 N 1031,6 20 0 0,0
15.03.2019 03:00:00 3,1 -0,5 6 4 13 7 N 1031,8 20 0 0,0
15.03.2019 02:00:00 2,8 -0,7 8 5 11 6 N 1032,0 20 0 0,0
15.03.2019 01:00:00 3,0 -1,4 4 2 10 5 NNE 1032,0 20 0 -
15.03.2019 00:00:00 4,2 -1,2 5 3 7 4 NNW 1031,5 20 0 0,0
14.03.2019 23:00:00 5,4 -1,2 1 1 10 5 NW 1031,1 20 0 0,0
14.03.2019 22:00:00 7,1 -1,0 2 1 10 6 W 1030,0 20 0 0,0
14.03.2019 21:00:00 11,0 -1,4 5 3 16 9 S 1028,4 20 0 0,0
14.03.2019 20:00:00 12,7 -2,5 10 5 18 10 SSW 1027,4 20 0 0,0
14.03.2019 19:00:00 15,2 -1,0 8 4 22 12 SSW 1026,1 20 31 -
14.03.2019 18:00:00 17,1 0,2 10 6 26 14 S 1025,3 20 60 0,0
14.03.2019 17:00:00 17,2 0,4 10 5 21 12 S 1025,7 20 60 0,0
14.03.2019 16:00:00 16,1 0,2 10 6 23 12 S 1026,7 20 60 0,0
14.03.2019 15:00:00 15,3 -0,5 7 4 20 11 S 1027,6 20 60 0,0
14.03.2019 14:00:00 13,2 0,0 8 5 20 11 SSW 1029,4 20 60 0,0
14.03.2019 13:00:00 11,3 -1,0 7 4 16 9 S 1031,3 20 60 -
14.03.2019 12:00:00 9,2 -0,7 5 3 14 7 S 1032,6 20 60 0,0
14.03.2019 11:00:00 7,2 -1,0 3 2 13 7 SW 1033,6 20 60 0,0
14.03.2019 10:00:00 5,0 -0,7 4 2 16 9 ENE 1034,3 20 60 0,0
14.03.2019 09:00:00 3,1 -1,2 1 1 5 3 S 1035,0 20 52 0,0
14.03.2019 08:00:00 -0,4 -2,7 2 1 9 5 WNW 1036,1 20 0 0,0
14.03.2019 07:00:00 -0,8 -2,7 3 1 6 4 SW 1036,2 20 0 -
14.03.2019 06:00:00 0,5 -2,2 3 2 12 6 SW 1035,4 20 0 0,0
14.03.2019 05:00:00 0,7 -2,0 3 1 13 7 W 1035,0 20 0 0,0
14.03.2019 04:00:00 0,6 -2,2 4 2 10 6 NNE 1035,1 20 0 0,0
14.03.2019 03:00:00 1,0 -2,0 4 2 10 6 NNE 1035,8 20 0 0,0
14.03.2019 02:00:00 1,9 -2,0 1 1 16 8 W 1035,2 20 0 0,0
14.03.2019 01:00:00 2,8 -1,4 10 5 18 10 N 1035,2 20 0 -
14.03.2019 00:00:00 3,3 -2,0 6 3 13 7 NNE 1035,4 20 0 0,0
13.03.2019 23:00:00 4,0 -1,4 3 2 16 9 ESE 1034,7 20 0 0,0
13.03.2019 22:00:00 5,1 -1,2 11 6 17 9 N 1034,1 20 0 0,0
13.03.2019 21:00:00 6,0 -1,7 10 5 17 9 N 1033,6 20 0 0,0
13.03.2019 20:00:00 7,5 -2,0 6 4 20 11 N 1032,4 20 0 0,0
13.03.2019 19:00:00 10,0 -2,7 11 6 31 17 N 1030,8 20 25 -
13.03.2019 18:00:00 12,5 -3,9 14 8 31 17 NNW 1029,5 20 54 0,0
13.03.2019 17:00:00 13,0 -2,5 13 7 34 18 NW 1028,9 20 49 0,0
13.03.2019 16:00:00 13,3 -2,2 11 6 29 15 NW 1028,7 20 45 0,0
13.03.2019 15:00:00 - - - - - - - - - - -
13.03.2019 14:00:00 12,2 -2,7 16 9 34 18 NNW 1029,2 20 59 0,0
13.03.2019 13:00:00 11,3 -2,2 16 9 34 18 N 1029,9 20 53 -
13.03.2019 12:00:00 10,4 -1,7 14 8 32 17 NNW 1030,1 20 58 0,0
13.03.2019 11:00:00 9,5 -2,2 15 8 37 20 NNW 1030,6 20 60 0,0
13.03.2019 10:00:00 7,4 -1,2 16 9 33 18 NW 1031,1 20 60 0,0
13.03.2019 09:00:00 4,9 -2,0 11 6 24 13 NW 1031,3 20 50 0,0

tt = temperature
td = dewpoint
ff = wind speed
fx = gusts
dd = wind direction
ppp = reduced air pressure
vv = visibility
sd = sunshine duration
rr = precipitation

Next stations